Left ArrowRight Arrow

44.31136, -96.79839

Hourly Observations for February 26, 2023

Temp ( °F °C ) Dew Point ( °F °C ) Humidity (%) Winds ( mph kmh ) Pressure ( in mb ) Visibility ( mi km ) Precip ( " mm )
12:56 am 00:56 Clear 1 -17.2 -2 -18.9 87 87 ENE 5 7 30.06 1018 10 16 0.00 0.00
1:56 am 01:56 Clear 3 -16.1 0 -17.8 87 87 Calm 30.04 1017 10 16 0.00 0.00
2:56 am 02:56 Clear -2 -18.9 -6 -21.1 83 83 Calm 30.05 1018 10 16 0.00 0.00
3:56 am 03:56 Clear -2 -18.9 -6 -21.1 83 83 Calm 30.03 1017 10 16 0.00 0.00
4:56 am 04:56 Clear -3 -19.4 -7 -21.7 82 82 Calm 30.03 1017 8 13 0.00 0.00
5:56 am 05:56 Clear -3 -19.4 -6 -21.1 86 86 Calm 30.01 1016 8 13 0.00 0.00
6:56 am 06:56 Clear -1 -18.3 -5 -20.6 82 82 Calm 30.00 1016 10 16 0.00 0.00
7:56 am 07:56 Sunny 10 -12.2 8 -13.3 91 91 SE 5 7 29.95 1014 10 16 0.00 0.00
8:56 am 08:56 Sunny 12 -11.1 8 -13.3 84 84 Calm 29.95 1014 9 14 0.00 0.00
9:56 am 09:56 Sunny 24 -4.4 15 -9.4 68 68 SSE 18 30 29.91 1013 10 16 0.00 0.00
10:56 am 10:56 Sunny 29 -1.7 21 -6.1 72 72 SSE 16 26 29.89 1012 10 16 0.00 0.00
11:56 am 11:56 Sunny 31 -0.6 25 -3.9 78 78 SSE 22 35 29.85 1011 10 16 0.01 0.13
12:56 pm 12:56 Sunny with Light Rain 33 0.6 26 -3.3 75 75 SSE 21 33 29.80 1009 10 16 0.01 0.13
1:56 pm 13:56 Sunny 35 1.7 27 -2.8 72 72 SE 16 26 29.74 1007 10 16 0.01 0.13
2:56 pm 14:56 Sunny 36 2.2 27 -2.8 69 69 SSE 18 30 29.71 1006 10 16 0.00 0.00
3:56 pm 15:56 Sunny 36 2.2 28 -2.2 73 73 SE 21 33 29.67 1005 10 16 0.00 0.00
4:56 pm 16:56 Sunny 35 1.7 29 -1.7 78 78 SE 23 37 29.62 1003 10 16 0.00 0.00
5:56 pm 17:56 Cloudy 35 1.7 30 -1.1 82 82 SE 22 35 29.59 1002 10 16 0.00 0.00
6:23 pm 18:23 Cloudy 36 2 30 -1 80 80 SE 23 37 29.52 1000 10 16 0.00 0.00
6:37 pm 18:37 Cloudy 36 2 30 -1 80 80 SE 22 35 29.53 1000 10 16 0.00 0.00
6:56 pm 18:56 Cloudy 35 1.7 31 -0.6 85 85 SE 22 35 29.59 1002 10 16 0.00 0.00
7:06 pm 19:06 Cloudy 36 2 30 -1 80 80 SE 22 35 29.53 1000 10 16 0.00 0.00
7:56 pm 19:56 Cloudy 36 2.2 32 0 85 85 SE 20 31 29.57 1001 10 16 0.00 0.00
8:56 pm 20:56 Cloudy 36 2.2 32 0 85 85 SE 14 22 29.55 1001 10 16 0.00 0.00
9:56 pm 21:56 Cloudy 36 2.2 32 0 85 85 SE 14 22 29.49 999 10 16 0.00 0.00
10:37 pm 22:37 Cloudy 37 3 34 1 87 87 SSE 16 26 29.44 997 10 16 0.00 0.00
10:56 pm 22:56 Cloudy 37 2.8 33 0.6 85 85 SSE 13 20 29.49 999 10 16 0.00 0.00
11:29 pm 23:29 Cloudy 36 2 32 0 87 87 SE 9 15 29.42 996 10 16 0.00 0.00
11:56 pm 23:56 Cloudy 35 1.7 33 0.6 92 92 ESE 9 15 29.43 997 8 13 0.00 0.00

Powered by Vaisala Xweather